GW5351 Weather Reports


Display with metric or nautical units.
time (UTC)temp
F
wind
direction
speed
MPH
gust
MPH
rain 1hr
in
rain 24hr
in
rain mn
in
humidity
%
barometer
mb
20260509153937 78 168 2.0 3.0 0.00 0.00 0.00 90 1011.8
20260509153434 78 206 0.0 1.0 0.00 0.00 0.00 89 1011.9
20260509152931 79 207 0.0 2.0 0.00 0.00 0.00 89 1011.8
20260509152427 79 211 0.0 1.0 0.00 0.00 0.00 89 1011.7
20260509151924 78 231 0.0 0.0 0.00 0.00 0.00 90 1011.8
20260509151420 78 185 1.0 2.0 0.00 0.00 0.00 90 1011.6
20260509150918 78 180 1.0 3.0 0.00 0.00 0.00 91 1011.6
20260509150415 78 209 0.0 0.0 0.00 0.00 0.00 91 1011.5
20260509145914 77 216 0.0 1.0 0.00 0.00 0.00 92 1011.6
20260509145413 77 216 0.0 1.0 0.00 0.00 0.00 92 1011.3
20260509144909 77 211 0.0 1.0 0.00 0.00 0.00 93 1011.6
20260509144406 77 193 0.0 1.0 0.00 0.00 0.00 93 1011.5
20260509143903 77 210 0.0 0.0 0.00 0.00 0.00 94 1011.5
20260509143401 77 212 0.0 1.0 0.00 0.00 0.00 94 1011.3
20260509142857 77 211 0.0 0.0 0.00 0.00 0.00 95 1011.2
20260509142353 76 211 0.0 0.0 0.00 0.00 0.00 95 1011.2
20260509141849 76 211 0.0 1.0 0.00 0.00 0.00 96 1010.9
20260509141346 76 212 0.0 1.0 0.00 0.00 0.00 96 1010.7
20260509140842 76 199 0.0 1.0 0.00 0.00 0.00 96 1011.0
20260509140339 75 198 0.0 0.0 0.00 0.00 0.00 97 1010.9
20260509135838 76 216 0.0 0.0 0.00 0.00 0.00 97 1011.0
20260509135335 75 216 0.0 0.0 0.00 0.00 0.00 97 1011.2
20260509134832 75 227 0.0 0.0 0.00 0.00 0.00 98 1011.3
20260509134329 75 227 1.0 1.0 0.00 0.00 0.00 98 1011.2
20260509133826 75 227 1.0 1.0 0.00 0.00 0.00 98 1011.4
20260509133323 75 226 0.0 2.0 0.00 0.00 0.00 98 1011.6
20260509132822 75 186 1.0 2.0 0.00 0.00 0.00 98 1011.7
20260509132320 75 198 0.0 1.0 0.00 0.00 0.00 99 1011.6
20260509131816 75 204 0.0 1.0 0.00 0.00 0.00 99 1011.5
20260509131313 74 198 0.0 1.0 0.00 0.00 0.00 99 1011.9
20260509130809 74 192 0.0 1.0 0.00 0.00 0.00 99 1011.8
20260509130305 74 206 0.0 1.0 0.00 0.00 0.00 99 1011.8
20260509125802 74 223 0.0 0.0 0.00 0.00 0.00 99 1011.4
20260509125258 74 223 0.0 0.0 0.00 0.00 0.00 99 1011.4
20260509124755 74 223 0.0 0.0 0.00 0.00 0.00 99 1011.5
20260509124251 74 223 0.0 0.0 0.00 0.00 0.00 99 1011.4
20260509123750 74 223 0.0 0.0 0.00 0.00 0.00 99 1011.3
20260509123246 73 223 0.0 0.0 0.00 0.00 0.00 99 1011.5
20260509122742 73 223 0.0 0.0 0.00 0.00 0.00 99 1011.5
20260509122239 73 208 0.0 0.0 0.00 0.00 0.00 99 1011.5
20260509121736 73 208 0.0 0.0 0.00 0.00 0.00 99 1011.4
20260509121233 73 208 0.0 0.0 0.00 0.00 0.00 99 1011.3
20260509120731 73 208 0.0 1.0 0.00 0.00 0.00 99 1011.2
20260509120229 73 207 0.0 0.0 0.00 0.00 0.00 99 1011.1
20260509115727 73 208 0.0 0.0 0.00 0.00 0.00 99 1010.9
20260509115224 73 208 0.0 0.0 0.00 0.00 0.00 99 1010.8
20260509114722 73 208 0.0 0.0 0.00 0.00 0.00 99 1010.9
20260509114220 73 208 0.0 0.0 0.00 0.00 0.00 99 1011.1
20260509113719 73 208 0.0 0.0 0.00 0.00 0.00 99 1011.1
20260509113215 73 208 0.0 0.0 0.00 0.00 0.00 99 1010.9
20260509112712 73 209 0.0 0.0 0.00 0.00 0.00 99 1011.1
20260509112209 73 208 0.0 0.0 0.00 0.00 0.00 99 1011.2
20260509111706 73 207 0.0 1.0 0.00 0.00 0.00 99 1011.0
20260509111203 73 193 1.0 2.0 0.00 0.00 0.00 99 1010.9
20260509110700 73 193 0.0 2.0 0.00 0.00 0.00 99 1011.0
20260509110157 73 236 0.0 0.0 0.00 0.00 0.00 99 1011.4
20260509105655 73 236 0.0 0.0 0.00 0.00 0.00 99 1011.4
20260509105152 73 236 0.0 0.0 0.00 0.00 0.00 99 1011.3
20260509104649 73 236 0.0 0.0 0.00 0.00 0.00 99 1011.2
20260509104146 73 236 0.0 0.0 0.00 0.00 0.00 99 1011.2
20260509103644 73 236 0.0 0.0 0.00 0.00 0.00 99 1011.3
20260509103142 73 236 0.0 0.0 0.00 0.00 0.00 99 1011.2
20260509102639 73 236 0.0 0.0 0.00 0.00 0.00 99 1011.0
20260509102136 73 236 0.0 0.0 0.00 0.00 0.00 99 1010.9
20260509101632 73 236 0.0 1.0 0.00 0.00 0.00 99 1010.9
20260509101129 73 236 0.0 0.0 0.00 0.00 0.00 99 1010.7
20260509100626 73 236 0.0 0.0 0.00 0.00 0.00 99 1010.4
20260509100124 73 236 0.0 0.0 0.00 0.00 0.00 99 1010.4
20260509095620 73 236 0.0 0.0 0.00 0.00 0.00 99 1010.4
20260509095117 73 236 0.0 0.0 0.00 0.00 0.00 99 1010.4
20260509094613 73 236 0.0 2.0 0.00 0.00 0.00 99 1010.3
20260509094111 73 218 0.0 0.0 0.00 0.00 0.00 99 1010.3
20260509093609 73 218 0.0 0.0 0.00 0.00 0.00 99 1010.4
20260509093106 73 218 0.0 0.0 0.00 0.00 0.00 99 1010.6
20260509092604 73 218 0.0 0.0 0.00 0.00 0.00 99 1010.7
20260509092102 73 218 0.0 0.0 0.00 0.00 0.00 99 1010.6
20260509091600 73 218 0.0 0.0 0.00 0.00 0.00 99 1010.6
20260509091056 73 218 0.0 0.0 0.00 0.00 0.00 99 1010.6
20260509090553 73 218 0.0 0.0 0.00 0.00 0.00 99 1010.7
20260509090051 73 218 0.0 0.0 0.00 0.00 0.00 99 1010.7
20260509085548 73 218 0.0 0.0 0.00 0.00 0.00 99 1010.9
20260509085044 73 218 0.0 0.0 0.00 0.00 0.00 99 1010.9
20260509084541 73 218 0.0 0.0 0.00 0.00 0.00 99 1011.1
20260509084038 73 218 0.0 0.0 0.00 0.00 0.00 99 1011.1
20260509083536 73 218 0.0 0.0 0.00 0.00 0.00 99 1011.1
20260509083032 73 218 0.0 0.0 0.00 0.00 0.00 99 1011.1
20260509082530 73 218 0.0 0.0 0.00 0.00 0.00 99 1011.0
20260509082027 73 218 0.0 0.0 0.00 0.00 0.00 99 1011.0
20260509081524 73 217 0.0 0.0 0.00 0.00 0.00 99 1011.1
20260509081020 73 217 0.0 0.0 0.00 0.00 0.00 99 1011.0
20260509080519 73 217 0.0 0.0 0.00 0.00 0.00 99 1011.0
20260509080016 73 217 0.0 0.0 0.00 0.00 0.00 99 1010.8
20260509075513 73 217 0.0 0.0 0.00 0.00 0.00 99 1010.7
20260509075011 73 217 0.0 0.0 0.00 0.00 0.00 99 1010.8
20260509074508 73 217 0.0 1.0 0.00 0.00 0.00 99 1011.0
20260509074004 73 209 0.0 0.0 0.00 0.00 0.00 99 1010.7
20260509073501 73 211 0.0 1.0 0.00 0.00 0.00 99 1010.6
20260509072957 73 197 0.0 1.0 0.00 0.00 0.00 99 1010.7
20260509072454 73 198 0.0 0.0 0.00 0.00 0.00 99 1010.9
20260509071951 73 198 0.0 0.0 0.00 0.00 0.00 99 1010.9
20260509071447 73 198 0.0 0.0 0.00 0.00 0.00 99 1010.8
20260509070946 73 198 0.0 0.0 0.00 0.00 0.00 99 1010.9
20260509070442 73 198 0.0 0.0 0.00 0.00 0.00 99 1010.8
20260509065937 73 198 0.0 0.0 0.00 0.00 0.00 99 1010.8
20260509065434 73 198 0.0 1.0 0.00 0.00 0.00 99 1010.9
20260509064930 73 198 0.0 1.0 0.00 0.00 0.00 99 1010.7
20260509064428 73 223 0.0 0.0 0.00 0.00 0.00 99 1010.9
20260509063926 73 223 0.0 0.0 0.00 0.00 0.00 99 1010.9
20260509063421 73 194 0.0 0.0 0.00 0.00 0.00 99 1010.9
20260509062918 73 193 0.0 0.0 0.00 0.00 0.00 99 1011.0
20260509062416 73 194 0.0 0.0 0.00 0.00 0.00 99 1010.9
20260509061913 73 219 0.0 1.0 0.00 0.00 0.00 99 1010.9
20260509061411 73 202 0.0 1.0 0.00 0.00 0.00 99 1011.1
20260509060907 73 211 0.0 0.0 0.00 0.00 0.00 99 1011.3
20260509060405 73 197 0.0 0.0 0.00 0.00 0.00 99 1011.3
20260509055859 72 211 0.0 1.0 0.00 0.00 0.00 99 1011.3
20260509055355 72 197 0.0 2.0 0.00 0.00 0.00 99 1011.3
20260509054853 72 208 0.0 0.0 0.00 0.00 0.00 99 1011.3
20260509054349 72 207 0.0 1.0 0.00 0.00 0.00 99 1011.4
20260509053847 72 215 1.0 2.0 0.00 0.00 0.00 99 1011.4
20260509053344 72 212 0.0 1.0 0.00 0.00 0.00 99 1011.3
20260509052843 72 205 0.0 0.0 0.00 0.00 0.00 99 1011.3
20260509052340 72 208 0.0 1.0 0.00 0.00 0.00 99 1011.4
20260509051838 72 212 0.0 1.0 0.00 0.00 0.00 99 1011.5
20260509051336 72 193 0.0 2.0 0.00 0.00 0.00 99 1011.3
20260509050832 72 193 1.0 2.0 0.00 0.00 0.00 99 1011.3
20260509050329 72 212 0.0 1.0 0.00 0.00 0.00 99 1011.2
20260509045826 72 225 1.0 2.0 0.00 0.00 0.00 99 1011.3
20260509045322 72 199 0.0 1.0 0.00 0.00 0.00 99 1011.3
20260509044820 72 170 1.0 2.0 0.00 0.00 0.00 99 1011.6
20260509044317 72 194 0.0 1.0 0.00 0.00 0.00 99 1011.4
20260509043813 72 216 0.0 0.0 0.00 0.00 0.00 99 1011.5
20260509043309 72 217 1.0 2.0 0.00 0.00 0.00 99 1011.5
20260509042806 72 190 0.0 1.0 0.00 0.00 0.00 99 1011.3
20260509042306 72 209 0.0 0.0 0.00 0.00 0.00 99 1011.4
20260509041759 72 205 0.0 2.0 0.00 0.00 0.00 99 1011.3
20260509041256 72 242 0.0 1.0 0.00 0.00 0.00 99 1011.3
20260509040754 72 194 0.0 2.0 0.00 0.00 0.00 99 1011.4
20260509040251 72 191 0.0 0.0 0.00 0.00 0.00 99 1011.3
20260509035748 72 195 0.0 1.0 0.00 0.00 0.00 99 1011.2
20260509035245 72 195 0.0 0.0 0.00 0.00 0.00 99 1011.2
20260509034742 72 206 1.0 1.0 0.00 0.00 0.00 99 1010.9
20260509034239 72 164 2.0 2.0 0.00 0.00 0.00 99 1011.1
20260509033736 72 215 0.0 1.0 0.00 0.00 0.00 98 1011.0
20260509033233 72 197 0.0 2.0 0.00 0.00 0.00 98 1011.0
20260509032730 72 227 1.0 1.0 0.00 0.00 0.00 98 1011.0
20260509032227 72 221 0.0 0.0 0.00 0.00 0.00 98 1011.1
20260509031725 72 217 0.0 0.0 0.00 0.00 0.00 98 1010.9
20260509031222 72 198 0.0 1.0 0.00 0.00 0.00 98 1011.0
20260509030720 72 230 0.0 2.0 0.00 0.00 0.00 98 1011.1
20260509030217 72 232 0.0 3.0 0.00 0.00 0.00 98 1010.9
20260509025713 72 248 2.0 4.0 0.00 0.00 0.00 98 1010.9
20260509025209 72 229 0.0 0.0 0.00 0.00 0.00 98 1010.7
20260509024705 72 218 1.0 2.0 0.00 0.00 0.00 98 1010.5
20260509024201 72 232 0.0 1.0 0.00 0.00 0.00 98 1010.5
20260509023659 72 224 0.0 2.0 0.00 0.00 0.00 98 1010.4
20260509023156 72 213 0.0 1.0 0.00 0.00 0.00 98 1010.5
20260509022651 72 225 0.0 0.0 0.00 0.00 0.00 98 1010.6
20260509022150 72 247 0.0 1.0 0.00 0.00 0.00 98 1010.5
20260509021646 72 203 1.0 2.0 0.00 0.00 0.00 98 1010.4
20260509021143 72 235 1.0 2.0 0.00 0.00 0.00 97 1010.4
20260509020642 72 236 0.0 1.0 0.00 0.00 0.00 97 1010.4
20260509020138 72 194 2.0 3.0 0.00 0.00 0.00 97 1010.3
20260509015637 73 213 0.0 1.0 0.00 0.00 0.00 97 1010.5
20260509015134 73 235 0.0 1.0 0.00 0.00 0.00 97 1010.4
20260509014630 73 208 0.0 1.0 0.00 0.00 0.00 96 1010.4
20260509014127 73 157 1.0 2.0 0.00 0.00 0.00 96 1010.2
20260509013624 73 239 1.0 1.0 0.00 0.00 0.00 96 1010.4
20260509013119 73 245 1.0 2.0 0.00 0.00 0.00 96 1010.6
20260509012617 73 208 1.0 2.0 0.00 0.00 0.00 95 1010.6
20260509012113 73 238 1.0 1.0 0.00 0.00 0.00 95 1010.5
20260509011612 73 215 1.0 4.0 0.00 0.00 0.00 95 1010.2
20260509011108 73 216 1.0 2.0 0.00 0.00 0.00 95 1010.3
20260509010606 74 207 0.0 1.0 0.00 0.00 0.00 94 1010.1
20260509005600 74 238 0.0 2.0 0.00 0.00 0.00 94 1010.1
20260509005055 74 232 1.0 2.0 0.00 0.00 0.00 93 1009.9
20260509004552 74 221 1.0 2.0 0.00 0.00 0.00 93 1009.8
20260509004049 74 221 1.0 3.0 0.00 0.00 0.00 93 1009.9
20260509003548 74 231 1.0 2.0 0.00 0.00 0.00 93 1009.8
20260509003044 75 220 1.0 2.0 0.00 0.00 0.00 92 1009.6
20260509002542 75 218 2.0 4.0 0.00 0.00 0.00 92 1010.0
20260509002039 75 235 1.0 2.0 0.00 0.00 0.00 91 1010.1
20260509001537 75 69 2.0 3.0 0.00 0.00 0.00 91 1010.2
20260509001032 75 218 2.0 3.0 0.00 0.00 0.00 90 1010.2
20260509000531 75 227 1.0 2.0 0.00 0.00 0.00 90 1010.2
20260509000026 76 34 1.0 2.0 0.00 0.00 0.00 89 1010.1
20260508235525 76 238 0.0 2.0 0.00 0.00 0.00 89 1010.2
20260508235020 76 219 1.0 4.0 0.00 0.00 0.00 89 1010.2
20260508234518 76 251 1.0 2.0 0.00 0.00 0.00 89 1010.3
20260508234015 76 83 2.0 4.0 0.00 0.00 0.00 88 1010.2
20260508233515 76 221 1.0 2.0 0.00 0.00 0.00 88 1010.4
20260508233011 76 292 1.0 2.0 0.00 0.00 0.00 88 1010.2
20260508232508 77 205 3.0 6.0 0.00 0.00 0.00 87 1010.4
20260508232005 77 189 1.0 2.0 0.00 0.00 0.00 86 1010.2
20260508231503 77 195 1.0 2.0 0.00 0.00 0.00 87 1010.1
20260508230959 77 147 2.0 4.0 0.00 0.00 0.00 86 1010.2
20260508230456 77 135 2.0 2.0 0.00 0.00 0.00 86 1010.1
20260508225953 78 220 1.0 1.0 0.00 0.00 0.00 85 1010.3
20260508225450 78 168 0.0 2.0 0.00 0.00 0.00 85 1010.1
20260508224947 78 225 2.0 2.0 0.00 0.00 0.00 84 1010.0
20260508224444 78 246 0.0 2.0 0.00 0.00 0.00 84 1010.0
20260508223942 78 171 0.0 1.0 0.00 0.00 0.00 84 1010.2
20260508223440 78 245 1.0 2.0 0.00 0.00 0.00 84 1010.1
20260508222936 78 216 0.0 1.0 0.00 0.00 0.00 84 1010.0
20260508222434 78 222 1.0 2.0 0.00 0.00 0.00 83 1010.1
20260508221930 79 233 1.0 2.0 0.00 0.00 0.00 83 1010.2
20260508221426 79 148 0.0 1.0 0.00 0.00 0.00 82 1010.3
20260508220923 79 163 2.0 3.0 0.00 0.00 0.00 82 1010.1
20260508220419 79 174 0.0 4.0 0.00 0.00 0.00 83 1010.1
20260508215915 78 210 0.0 1.0 0.00 0.00 0.00 83 1010.3
20260508215413 78 221 0.0 1.0 0.00 0.00 0.00 84 1010.4
20260508214909 78 317 1.0 2.0 0.00 0.00 0.00 84 1010.3
20260508214407 78 172 2.0 4.0 0.00 0.00 0.00 84 1010.5
20260508213903 78 211 1.0 2.0 0.00 0.00 0.00 84 1010.3
20260508213400 78 191 0.0 2.0 0.00 0.00 0.00 83 1010.5
20260508212855 79 205 0.0 2.0 0.00 0.00 0.00 82 1010.4
20260508212352 79 211 0.0 3.0 0.00 0.00 0.00 82 1010.4
20260508211848 79 283 1.0 3.0 0.00 0.00 0.00 83 1010.5
20260508211344 79 243 1.0 2.0 0.00 0.00 0.00 82 1010.4
20260508210842 79 221 1.0 3.0 0.00 0.00 0.00 82 1010.5
20260508210338 78 302 1.0 2.0 0.00 0.00 0.00 82 1010.4
20260508205835 78 242 1.0 2.0 0.00 0.00 0.00 82 1010.6
20260508205332 78 247 1.0 3.0 0.00 0.00 0.00 82 1010.7
20260508204827 78 210 1.0 2.0 0.00 0.00 0.00 82 1010.9
20260508204325 78 207 1.0 1.0 0.00 0.00 0.00 82 1010.9
20260508203821 79 148 1.0 2.0 0.00 0.00 0.00 82 1010.8
20260508203317 78 196 1.0 2.0 0.00 0.00 0.00 81 1011.1
20260508202813 78 209 1.0 6.0 0.00 0.00 0.00 83 1011.0
20260508202310 78 263 2.0 2.0 0.00 0.00 0.00 82 1011.0
20260508201808 79 200 1.0 2.0 0.00 0.00 0.00 81 1011.2
20260508201304 79 219 1.0 2.0 0.00 0.00 0.00 81 1011.1
20260508200801 79 195 1.0 2.0 0.00 0.00 0.00 81 1011.1
20260508200257 78 210 1.0 2.0 0.00 0.00 0.00 81 1011.3
20260508195753 78 207 1.0 2.0 0.00 0.00 0.00 83 1011.2
20260508195250 77 233 0.0 1.0 0.00 0.00 0.00 83 1011.2
20260508194746 77 217 0.0 1.0 0.00 0.00 0.00 84 1011.5
20260508194244 77 230 1.0 2.0 0.00 0.00 0.00 84 1011.7
20260508193741 77 223 0.0 3.0 0.00 0.00 0.00 83 1011.4
20260508193237 77 215 0.0 2.0 0.00 0.00 0.00 83 1011.6
20260508192733 77 203 1.0 7.0 0.00 0.00 0.00 83 1011.6
20260508192231 77 124 1.0 3.0 0.00 0.00 0.00 83 1011.6
20260508191728 77 245 0.0 2.0 0.00 0.00 0.00 83 1011.9
20260508191225 77 212 0.0 1.0 0.00 0.00 0.00 82 1011.9
20260508190722 77 195 0.0 2.0 0.00 0.00 0.00 83 1012.1
20260508190218 77 198 0.0 3.0 0.00 0.00 0.00 83 1012.2
20260508185715 77 191 1.0 3.0 0.00 0.00 0.00 83 1012.0
20260508185212 77 259 1.0 2.0 0.00 0.00 0.00 83 1012.1
20260508184709 77 240 0.0 2.0 0.00 0.00 0.00 83 1012.0
20260508184207 77 195 0.0 2.0 0.00 0.00 0.00 82 1012.1
20260508183703 75 173 1.0 2.0 0.00 0.00 0.00 83 1012.2
20260508183159 75 245 1.0 4.0 0.00 0.00 0.00 85 1012.3
20260508182655 76 356 3.0 4.0 0.00 0.00 0.00 83 1012.2
20260508182152 76 187 1.0 6.0 0.00 0.00 0.00 83 1012.3
20260508181648 75 140 4.0 6.0 0.00 0.00 0.00 83 1012.2
20260508181145 76 320 5.0 7.0 0.00 0.00 0.00 81 1012.0
20260508180642 75 234 1.0 4.0 0.00 0.00 0.00 84 1012.4
20260508180139 74 204 1.0 2.0 0.00 0.00 0.00 84 1012.4
20260508175635 74 244 0.0 2.0 0.00 0.00 0.00 85 1012.4
20260508175132 73 199 1.0 3.0 0.00 0.00 0.00 85 1012.5
20260508174629 73 202 1.0 2.0 0.00 0.00 0.00 86 1012.7
20260508174126 73 223 1.0 1.0 0.00 0.00 0.00 86 1013.1
20260508173623 73 233 1.0 2.0 0.00 0.00 0.00 86 1013.2
20260508173119 73 217 0.0 1.0 0.00 0.00 0.00 86 1013.2
20260508172617 73 222 0.0 2.0 0.00 0.00 0.00 86 1013.1
20260508172113 73 238 1.0 1.0 0.00 0.00 0.00 86 1013.2
20260508171609 73 211 0.0 1.0 0.00 0.00 0.00 85 1013.2
20260508171106 73 198 0.0 2.0 0.00 0.00 0.00 85 1013.1
20260508170604 73 165 1.0 1.0 0.00 0.00 0.00 85 1013.0
20260508170101 72 240 0.0 3.0 0.00 0.00 0.00 85 1012.8
20260508165558 73 262 2.0 2.0 0.00 0.00 0.00 85 1013.1
20260508165055 73 228 1.0 1.0 0.00 0.00 0.00 85 1013.2
20260508164551 72 196 1.0 3.0 0.00 0.00 0.00 85 1013.3
20260508164048 72 248 2.0 2.0 0.00 0.00 0.00 85 1013.3
20260508163545 72 356 3.0 4.0 0.00 0.00 0.00 85 1013.4
20260508163042 72 192 2.0 6.0 0.00 0.00 0.00 85 1013.6
20260508162539 72 216 0.0 2.0 0.00 0.00 0.00 85 1013.5
20260508162036 72 293 0.0 2.0 0.00 0.00 0.00 84 1013.3
20260508161533 72 248 0.0 3.0 0.00 0.00 0.00 85 1013.3
20260508161030 71 248 3.0 3.0 0.00 0.00 0.00 85 1013.4
20260508160529 71 342 1.0 2.0 0.00 0.00 0.00 86 1013.3
20260508160025 71 212 2.0 4.0 0.00 0.00 0.00 86 1013.6
20260508155522 71 270 1.0 3.0 0.00 0.00 0.00 86 1013.6
20260508155019 71 78 2.0 6.0 0.00 0.00 0.00 85 1013.8
20260508154516 71 183 2.0 3.0 0.00 0.00 0.00 85 1013.8